Location: Góry Miechowskie
(50.3599°N, 20.1803°E)
Time: 15:38:18
(UTC+00:00)

AQUA - Pass Details

Date: 18 September 2024
Orbit: 691 x 694 km, 98.3° (Epoch: 09 October)

Event Time Altitude Azimuth Distance (km) Brightness Sun altitude
Rises 03:11:49 0° 1° (N) 3,082 7.4 -11.5°
Reaches altitude 10° 03:14:59 10° 339° (NNW) 2,159 6.3 -11.0°
Maximum altitude 03:17:32 15° 306° (NW) 1,854 5.6 -10.6°
Enters shadow 03:19:37 11° 278° (W) 2,056 5.7 -10.3°
